Year,Month,Day,Hour,Minute,Value (Times are PST for temperature in C)
2014,07,03,00,00,16.40
2014,07,03,00,01,16.40
2014,07,03,00,02,16.40
2014,07,03,00,03,16.40
2014,07,03,00,04,16.40
2014,07,03,00,05,16.40
2014,07,03,00,06,16.40
2014,07,03,00,07,16.40
2014,07,03,00,08,16.40
2014,07,03,00,09,16.30
2014,07,03,00,10,16.20
2014,07,03,00,11,16.20
2014,07,03,00,12,16.10
2014,07,03,00,13,16.10
2014,07,03,00,14,16.00
2014,07,03,00,15,15.90
2014,07,03,00,16,15.90
2014,07,03,00,17,15.80
2014,07,03,00,18,15.80
2014,07,03,00,19,15.80
2014,07,03,00,20,15.80
2014,07,03,00,21,15.70
2014,07,03,00,22,15.70
2014,07,03,00,23,15.60
2014,07,03,00,24,15.60
2014,07,03,00,25,15.60
2014,07,03,00,26,15.60
2014,07,03,00,27,15.50
2014,07,03,00,28,15.50
2014,07,03,00,29,15.50
2014,07,03,00,30,15.40
2014,07,03,00,31,15.40
2014,07,03,00,32,15.30
2014,07,03,00,33,15.30
2014,07,03,00,34,15.30
2014,07,03,00,35,15.30
2014,07,03,00,36,15.30
2014,07,03,00,37,15.30
2014,07,03,00,38,15.30
2014,07,03,00,39,15.30
2014,07,03,00,40,15.30
2014,07,03,00,41,15.30
2014,07,03,00,42,15.30
2014,07,03,00,43,15.20
2014,07,03,00,44,15.20
2014,07,03,00,45,15.20
2014,07,03,00,46,15.20
2014,07,03,00,47,15.10
2014,07,03,00,48,15.10
2014,07,03,00,49,15.10
2014,07,03,00,50,15.10
2014,07,03,00,51,15.10
2014,07,03,00,52,15.10
2014,07,03,00,53,15.10
2014,07,03,00,54,15.00
2014,07,03,00,55,15.00
2014,07,03,00,56,15.00
2014,07,03,00,57,15.00
2014,07,03,00,58,15.00
2014,07,03,00,59,15.00
2014,07,03,01,00,15.00
2014,07,03,01,01,15.00
2014,07,03,01,02,15.00
2014,07,03,01,03,15.00
2014,07,03,01,04,15.00
2014,07,03,01,05,15.00
2014,07,03,01,06,15.00
2014,07,03,01,07,14.90
2014,07,03,01,08,14.90
2014,07,03,01,09,14.80
2014,07,03,01,10,14.80
2014,07,03,01,11,14.80
2014,07,03,01,12,14.80
2014,07,03,01,13,14.80
2014,07,03,01,14,14.80
2014,07,03,01,15,14.70
2014,07,03,01,16,14.70
2014,07,03,01,17,14.70
2014,07,03,01,18,14.60
2014,07,03,01,19,14.60
2014,07,03,01,20,14.60
2014,07,03,01,21,14.50
2014,07,03,01,22,14.50
2014,07,03,01,23,14.50
2014,07,03,01,24,14.50
2014,07,03,01,25,14.50
2014,07,03,01,26,14.50
2014,07,03,01,27,14.60
2014,07,03,01,28,14.60
2014,07,03,01,29,14.60
2014,07,03,01,30,14.60
2014,07,03,01,31,14.60
2014,07,03,01,32,14.60
2014,07,03,01,33,14.70
2014,07,03,01,34,14.70
2014,07,03,01,35,14.70
2014,07,03,01,36,14.70
2014,07,03,01,37,14.70
2014,07,03,01,38,14.70
2014,07,03,01,39,14.70
2014,07,03,01,40,14.60
2014,07,03,01,41,14.60
2014,07,03,01,42,14.60
2014,07,03,01,43,14.60
2014,07,03,01,44,14.60
2014,07,03,01,45,14.50
2014,07,03,01,46,14.60
2014,07,03,01,47,14.60
2014,07,03,01,48,14.60
2014,07,03,01,49,14.60
2014,07,03,01,50,14.60
2014,07,03,01,51,14.60
2014,07,03,01,52,14.50
2014,07,03,01,53,14.50
2014,07,03,01,54,14.50
2014,07,03,01,55,14.50
2014,07,03,01,56,14.50
2014,07,03,01,57,14.40
2014,07,03,01,58,14.40
2014,07,03,01,59,14.30
2014,07,03,02,00,14.30
2014,07,03,02,01,14.30
2014,07,03,02,02,14.20
2014,07,03,02,03,14.20
2014,07,03,02,04,14.20
2014,07,03,02,05,14.20
2014,07,03,02,06,14.20
2014,07,03,02,07,14.20
2014,07,03,02,08,14.20
2014,07,03,02,09,14.20
2014,07,03,02,10,14.20
2014,07,03,02,11,14.20
2014,07,03,02,12,14.20
2014,07,03,02,13,14.20
2014,07,03,02,14,14.10
2014,07,03,02,15,14.10
2014,07,03,02,16,14.10
2014,07,03,02,17,14.00
2014,07,03,02,18,14.00
2014,07,03,02,19,14.10
2014,07,03,02,20,14.10
2014,07,03,02,21,14.10
2014,07,03,02,22,14.20
2014,07,03,02,23,14.20
2014,07,03,02,24,14.20
2014,07,03,02,25,14.20
2014,07,03,02,26,14.20
2014,07,03,02,27,14.30
2014,07,03,02,28,14.30
2014,07,03,02,29,14.40
2014,07,03,02,30,14.40
2014,07,03,02,31,14.50
2014,07,03,02,32,14.50
2014,07,03,02,33,14.50
2014,07,03,02,34,14.60
2014,07,03,02,35,14.60
2014,07,03,02,36,14.60
2014,07,03,02,37,14.60
2014,07,03,02,38,14.60
2014,07,03,02,39,14.50
2014,07,03,02,40,14.50
2014,07,03,02,41,14.50
2014,07,03,02,42,14.50
2014,07,03,02,43,14.40
2014,07,03,02,44,14.40
2014,07,03,02,45,14.40
2014,07,03,02,46,14.40
2014,07,03,02,47,14.40
2014,07,03,02,48,14.40
2014,07,03,02,49,14.40
2014,07,03,02,50,14.30
2014,07,03,02,51,14.30
2014,07,03,02,52,14.30
2014,07,03,02,53,14.30
2014,07,03,02,54,14.20
2014,07,03,02,55,14.20
2014,07,03,02,56,14.20
2014,07,03,02,57,14.20
2014,07,03,02,58,14.20
2014,07,03,02,59,14.20
2014,07,03,03,00,14.20
2014,07,03,03,01,14.20
2014,07,03,03,02,14.20
2014,07,03,03,03,14.10
2014,07,03,03,04,14.10
2014,07,03,03,05,14.10
2014,07,03,03,06,14.10
2014,07,03,03,07,14.00
2014,07,03,03,08,14.00
2014,07,03,03,09,14.00
2014,07,03,03,10,14.00
2014,07,03,03,11,13.90
2014,07,03,03,12,13.90
2014,07,03,03,13,13.90
2014,07,03,03,14,13.80
2014,07,03,03,15,13.80
2014,07,03,03,16,13.80
2014,07,03,03,17,13.70
2014,07,03,03,18,13.70
2014,07,03,03,19,13.70
2014,07,03,03,20,13.70
2014,07,03,03,21,13.70
2014,07,03,03,22,13.60
2014,07,03,03,23,13.60
2014,07,03,03,24,13.60
2014,07,03,03,25,13.60
2014,07,03,03,26,13.50
2014,07,03,03,27,13.50
2014,07,03,03,28,13.50
2014,07,03,03,29,13.40
2014,07,03,03,30,13.40
2014,07,03,03,31,13.40
2014,07,03,03,32,13.30
2014,07,03,03,33,13.30
2014,07,03,03,34,13.30
2014,07,03,03,35,13.30
2014,07,03,03,36,13.30
2014,07,03,03,37,13.20
2014,07,03,03,38,13.20
2014,07,03,03,39,13.20
2014,07,03,03,40,13.10
2014,07,03,03,41,13.10
2014,07,03,03,42,13.10
2014,07,03,03,43,13.10
2014,07,03,03,44,13.00
2014,07,03,03,45,13.00
2014,07,03,03,46,13.00
2014,07,03,03,47,13.00
2014,07,03,03,48,13.00
2014,07,03,03,49,13.00
2014,07,03,03,50,13.00
2014,07,03,03,51,13.10
2014,07,03,03,52,13.10
2014,07,03,03,53,13.20
2014,07,03,03,54,13.20
2014,07,03,03,55,13.30
2014,07,03,03,56,13.30
2014,07,03,03,57,13.30
2014,07,03,03,58,13.30
2014,07,03,03,59,13.30
2014,07,03,04,00,13.30
2014,07,03,04,01,13.30
2014,07,03,04,02,13.30
2014,07,03,04,03,13.20
2014,07,03,04,04,13.20
2014,07,03,04,05,13.20
2014,07,03,04,06,13.10
2014,07,03,04,07,13.10
2014,07,03,04,08,13.10
2014,07,03,04,09,13.00
2014,07,03,04,10,13.00
2014,07,03,04,11,12.90
2014,07,03,04,12,12.90
2014,07,03,04,13,12.90
2014,07,03,04,14,12.90
2014,07,03,04,15,12.80
2014,07,03,04,16,12.80
2014,07,03,04,17,12.80
2014,07,03,04,18,12.80
2014,07,03,04,19,12.80
2014,07,03,04,20,12.80
2014,07,03,04,21,12.70
2014,07,03,04,22,12.70
2014,07,03,04,23,12.70
2014,07,03,04,24,12.70
2014,07,03,04,25,12.60
2014,07,03,04,26,12.60
2014,07,03,04,27,12.60
2014,07,03,04,28,12.50
2014,07,03,04,29,12.50
2014,07,03,04,30,12.50
2014,07,03,04,31,12.50
2014,07,03,04,32,12.50
2014,07,03,04,33,12.50
2014,07,03,04,34,12.50
2014,07,03,04,35,12.50
2014,07,03,04,36,12.50
2014,07,03,04,37,12.50
2014,07,03,04,38,12.50
2014,07,03,04,39,12.50
2014,07,03,04,40,12.50
2014,07,03,04,41,12.50
2014,07,03,04,42,12.50
2014,07,03,04,43,12.50
2014,07,03,04,44,12.40
2014,07,03,04,45,12.40
2014,07,03,04,46,12.40
2014,07,03,04,47,12.40
2014,07,03,04,48,12.40
2014,07,03,04,49,12.30
2014,07,03,04,50,12.30
2014,07,03,04,51,12.30
2014,07,03,04,52,12.30
2014,07,03,04,53,12.30
2014,07,03,04,54,12.30
2014,07,03,04,55,12.30
2014,07,03,04,56,12.30
2014,07,03,04,57,12.30
2014,07,03,04,58,12.30
2014,07,03,04,59,12.30
2014,07,03,05,00,12.30
2014,07,03,05,01,12.30
2014,07,03,05,02,12.30
2014,07,03,05,03,12.30
2014,07,03,05,04,12.20
2014,07,03,05,05,12.20
2014,07,03,05,06,12.20
2014,07,03,05,07,12.20
2014,07,03,05,08,12.20
2014,07,03,05,09,12.10
2014,07,03,05,10,12.10
2014,07,03,05,11,12.10
2014,07,03,05,12,12.00
2014,07,03,05,13,12.00
2014,07,03,05,14,12.00
2014,07,03,05,15,12.00
2014,07,03,05,16,11.90
2014,07,03,05,17,11.90
2014,07,03,05,18,11.90
2014,07,03,05,19,11.90
2014,07,03,05,20,11.90
2014,07,03,05,21,11.90
2014,07,03,05,22,11.80
2014,07,03,05,23,11.80
2014,07,03,05,24,11.80
2014,07,03,05,25,11.80
2014,07,03,05,26,11.80
2014,07,03,05,27,11.80
2014,07,03,05,28,11.80
2014,07,03,05,29,11.80
2014,07,03,05,30,11.80
2014,07,03,05,31,11.80
2014,07,03,05,32,11.80
2014,07,03,05,33,11.80
2014,07,03,05,34,11.80
2014,07,03,05,35,11.80
2014,07,03,05,36,11.80
2014,07,03,05,37,11.80
2014,07,03,05,38,11.80
2014,07,03,05,39,11.80
2014,07,03,05,40,11.90
2014,07,03,05,41,12.00
2014,07,03,05,42,12.10
2014,07,03,05,43,12.10
2014,07,03,05,44,12.20
2014,07,03,05,45,12.20
2014,07,03,05,46,12.20
2014,07,03,05,47,12.30
2014,07,03,05,48,12.30
2014,07,03,05,49,12.30
2014,07,03,05,50,12.30
2014,07,03,05,51,12.30
2014,07,03,05,52,12.30
2014,07,03,05,53,12.30
2014,07,03,05,54,12.30
2014,07,03,05,55,12.30
2014,07,03,05,56,12.30
2014,07,03,05,57,12.30
2014,07,03,05,58,12.30
2014,07,03,05,59,12.30
2014,07,03,06,00,12.40
2014,07,03,06,01,12.40
2014,07,03,06,02,12.40
2014,07,03,06,03,12.40
2014,07,03,06,04,12.40
2014,07,03,06,05,12.40
2014,07,03,06,06,12.40
2014,07,03,06,07,12.50
2014,07,03,06,08,12.50
2014,07,03,06,09,12.50
2014,07,03,06,10,12.50
2014,07,03,06,11,12.50
2014,07,03,06,12,12.50
2014,07,03,06,13,12.60
2014,07,03,06,14,12.60
2014,07,03,06,15,12.60
2014,07,03,06,16,12.60
2014,07,03,06,17,12.70
2014,07,03,06,18,12.70
2014,07,03,06,19,12.70
2014,07,03,06,20,12.80
2014,07,03,06,21,12.80
2014,07,03,06,22,12.80
2014,07,03,06,23,12.80
2014,07,03,06,24,12.80
2014,07,03,06,25,12.90
2014,07,03,06,26,12.90
2014,07,03,06,27,13.00
2014,07,03,06,28,13.00
2014,07,03,06,29,13.10
2014,07,03,06,30,13.20
2014,07,03,06,31,13.30
2014,07,03,06,32,13.40
2014,07,03,06,33,13.50
2014,07,03,06,34,13.60
2014,07,03,06,35,13.70
2014,07,03,06,36,13.80
2014,07,03,06,37,13.90
2014,07,03,06,38,14.10
2014,07,03,06,39,14.30
2014,07,03,06,40,14.50
2014,07,03,06,41,14.70
2014,07,03,06,42,14.80
2014,07,03,06,43,14.90
2014,07,03,06,44,14.90
2014,07,03,06,45,15.00
2014,07,03,06,46,15.00
2014,07,03,06,47,15.10
2014,07,03,06,48,15.20
2014,07,03,06,49,15.30
2014,07,03,06,50,15.30
2014,07,03,06,51,15.30
2014,07,03,06,52,15.40
2014,07,03,06,53,15.40
2014,07,03,06,54,15.50
2014,07,03,06,55,15.50
2014,07,03,06,56,15.60
2014,07,03,06,57,15.60
2014,07,03,06,58,15.60
2014,07,03,06,59,15.60
2014,07,03,07,00,15.50
2014,07,03,07,01,15.50
2014,07,03,07,02,15.50
2014,07,03,07,03,15.50
2014,07,03,07,04,15.50
2014,07,03,07,05,15.50
2014,07,03,07,06,15.50
2014,07,03,07,07,15.50
2014,07,03,07,08,15.50
2014,07,03,07,09,15.50
2014,07,03,07,10,15.50
2014,07,03,07,11,15.50
2014,07,03,07,12,15.50
2014,07,03,07,13,15.50
2014,07,03,07,14,15.50
2014,07,03,07,15,15.50
2014,07,03,07,16,15.50
2014,07,03,07,17,15.40
2014,07,03,07,18,15.40
2014,07,03,07,19,15.40
2014,07,03,07,20,15.40
2014,07,03,07,21,15.40
2014,07,03,07,22,15.40
2014,07,03,07,23,15.40
2014,07,03,07,24,15.40
2014,07,03,07,25,15.40
2014,07,03,07,26,15.40
2014,07,03,07,27,15.40
2014,07,03,07,28,15.40
2014,07,03,07,29,15.40
2014,07,03,07,30,15.50
2014,07,03,07,31,15.50
2014,07,03,07,32,15.50
2014,07,03,07,33,15.50
2014,07,03,07,34,15.50
2014,07,03,07,35,15.60
2014,07,03,07,36,15.60
2014,07,03,07,37,15.60
2014,07,03,07,38,15.70
2014,07,03,07,39,15.80
2014,07,03,07,40,15.80
2014,07,03,07,41,15.80
2014,07,03,07,42,15.90
2014,07,03,07,43,15.90
2014,07,03,07,44,16.00
2014,07,03,07,45,16.10
2014,07,03,07,46,16.10
2014,07,03,07,47,16.10
2014,07,03,07,48,16.20
2014,07,03,07,49,16.20
2014,07,03,07,50,16.30
2014,07,03,07,51,16.20
2014,07,03,07,52,16.20
2014,07,03,07,53,16.10
2014,07,03,07,54,16.10
2014,07,03,07,55,16.00
2014,07,03,07,56,15.90
2014,07,03,07,57,15.90
2014,07,03,07,58,15.90
2014,07,03,07,59,15.90
2014,07,03,08,00,15.90
2014,07,03,08,01,16.00
2014,07,03,08,02,16.10
2014,07,03,08,03,16.10
2014,07,03,08,04,16.10
2014,07,03,08,05,16.10
2014,07,03,08,06,16.10
2014,07,03,08,07,16.10
2014,07,03,08,08,16.10
2014,07,03,08,09,16.00
2014,07,03,08,10,15.90
2014,07,03,08,11,15.90
2014,07,03,08,12,15.90
2014,07,03,08,13,15.90
2014,07,03,08,14,16.00
2014,07,03,08,15,16.10
2014,07,03,08,16,16.10
2014,07,03,08,17,16.10
2014,07,03,08,18,16.10
2014,07,03,08,19,16.10
2014,07,03,08,20,16.10
2014,07,03,08,21,16.10
2014,07,03,08,22,16.10
2014,07,03,08,23,16.10
2014,07,03,08,24,16.10
2014,07,03,08,25,16.20
2014,07,03,08,26,16.20
2014,07,03,08,27,16.20
2014,07,03,08,28,16.20
2014,07,03,08,29,16.20
2014,07,03,08,30,16.20
2014,07,03,08,31,16.30
2014,07,03,08,32,16.30
2014,07,03,08,33,16.30
2014,07,03,08,34,16.30
2014,07,03,08,35,16.30
2014,07,03,08,36,16.30
2014,07,03,08,37,16.30
2014,07,03,08,38,16.20
2014,07,03,08,39,16.00
2014,07,03,08,40,15.90
2014,07,03,08,41,15.80
2014,07,03,08,42,15.80
2014,07,03,08,43,15.80
2014,07,03,08,44,15.80
2014,07,03,08,45,15.80
2014,07,03,08,46,15.80
2014,07,03,08,47,15.80
2014,07,03,08,48,15.80
2014,07,03,08,49,15.80
2014,07,03,08,50,15.80
2014,07,03,08,51,15.80
2014,07,03,08,52,15.80
2014,07,03,08,53,15.80
2014,07,03,08,54,15.70
2014,07,03,08,55,15.70
2014,07,03,08,56,15.70
2014,07,03,08,57,15.70
2014,07,03,08,58,15.70
2014,07,03,08,59,15.70
2014,07,03,09,00,15.70
2014,07,03,09,01,15.70
2014,07,03,09,02,15.70
2014,07,03,09,03,15.80
2014,07,03,09,04,15.80
2014,07,03,09,05,15.80
2014,07,03,09,06,15.80
2014,07,03,09,07,15.80
2014,07,03,09,08,15.80
2014,07,03,09,09,15.80
2014,07,03,09,10,15.80
2014,07,03,09,11,15.80
2014,07,03,09,12,15.80
2014,07,03,09,13,15.90
2014,07,03,09,14,15.90
2014,07,03,09,15,15.90
2014,07,03,09,16,15.90
2014,07,03,09,17,15.90
2014,07,03,09,18,15.90
2014,07,03,09,19,15.90
2014,07,03,09,20,15.90
2014,07,03,09,21,15.90
2014,07,03,09,22,15.90
2014,07,03,09,23,15.90
2014,07,03,09,24,16.00
2014,07,03,09,25,16.10
2014,07,03,09,26,16.10
2014,07,03,09,27,16.20
2014,07,03,09,28,16.30
2014,07,03,09,29,16.30
2014,07,03,09,30,16.30
2014,07,03,09,31,16.40
2014,07,03,09,32,16.40
2014,07,03,09,33,16.30
2014,07,03,09,34,16.30
2014,07,03,09,35,16.30
2014,07,03,09,36,16.30
2014,07,03,09,37,16.30
2014,07,03,09,38,16.30
2014,07,03,09,39,16.30
2014,07,03,09,40,16.30
2014,07,03,09,41,16.40
2014,07,03,09,42,16.40
2014,07,03,09,43,16.40
2014,07,03,09,44,16.40
2014,07,03,09,45,16.40
2014,07,03,09,46,16.30
2014,07,03,09,47,16.30
2014,07,03,09,48,16.20
2014,07,03,09,49,16.20
2014,07,03,09,50,16.20
2014,07,03,09,51,16.20
2014,07,03,09,52,16.20
2014,07,03,09,53,16.30
2014,07,03,09,54,16.30
2014,07,03,09,55,16.30
2014,07,03,09,56,16.30
2014,07,03,09,57,16.30
2014,07,03,09,58,16.40
2014,07,03,09,59,16.40
2014,07,03,10,00,16.40
2014,07,03,10,01,16.40
2014,07,03,10,02,16.30
2014,07,03,10,03,16.20
2014,07,03,10,04,16.20
2014,07,03,10,05,16.30
2014,07,03,10,06,16.30
2014,07,03,10,07,16.30
2014,07,03,10,08,16.30
2014,07,03,10,09,16.30
2014,07,03,10,10,16.30
2014,07,03,10,11,16.20
2014,07,03,10,12,16.20
2014,07,03,10,13,16.20
2014,07,03,10,14,16.20
2014,07,03,10,15,16.20
2014,07,03,10,16,16.20
2014,07,03,10,17,16.20
2014,07,03,10,18,16.10
2014,07,03,10,19,16.20
2014,07,03,10,20,16.20
2014,07,03,10,21,16.30
2014,07,03,10,22,16.30
2014,07,03,10,23,16.20
2014,07,03,10,24,16.30
2014,07,03,10,25,16.30
2014,07,03,10,26,16.20
2014,07,03,10,27,16.10
2014,07,03,10,28,16.00
2014,07,03,10,29,16.00
2014,07,03,10,30,16.00
2014,07,03,10,31,16.00
2014,07,03,10,32,16.10
2014,07,03,10,33,16.10
2014,07,03,10,34,16.10
2014,07,03,10,35,16.10
2014,07,03,10,36,16.20
2014,07,03,10,37,16.20
2014,07,03,10,38,16.30
2014,07,03,10,39,16.30
2014,07,03,10,40,16.30
2014,07,03,10,41,16.30
2014,07,03,10,42,16.30
2014,07,03,10,43,16.40
2014,07,03,10,44,16.40
2014,07,03,10,45,16.50
2014,07,03,10,46,16.70
2014,07,03,10,47,16.80
2014,07,03,10,48,16.80
2014,07,03,10,49,16.80
2014,07,03,10,50,17.00
2014,07,03,10,51,17.00
2014,07,03,10,52,17.10
2014,07,03,10,53,17.20
2014,07,03,10,54,17.20
2014,07,03,10,55,17.20
2014,07,03,10,56,17.20
2014,07,03,10,57,17.20
2014,07,03,10,58,17.10
2014,07,03,10,59,17.00
2014,07,03,11,00,17.00
2014,07,03,11,01,17.00
2014,07,03,11,02,17.00
2014,07,03,11,03,16.90
2014,07,03,11,04,16.90
2014,07,03,11,05,16.90
2014,07,03,11,06,16.90
2014,07,03,11,07,16.70
2014,07,03,11,08,16.80
2014,07,03,11,09,16.90
2014,07,03,11,10,17.00
2014,07,03,11,11,17.10
2014,07,03,11,12,17.30
2014,07,03,11,13,17.30
2014,07,03,11,14,17.30
2014,07,03,11,15,17.50
2014,07,03,11,16,17.50
2014,07,03,11,17,17.50
2014,07,03,11,18,17.40
2014,07,03,11,19,17.40
2014,07,03,11,20,17.40
2014,07,03,11,21,17.50
2014,07,03,11,22,17.50
2014,07,03,11,23,17.50
2014,07,03,11,24,17.50
2014,07,03,11,25,17.60
2014,07,03,11,26,17.60
2014,07,03,11,27,17.60
2014,07,03,11,28,17.60
2014,07,03,11,29,17.60
2014,07,03,11,30,17.60
2014,07,03,11,31,17.50
2014,07,03,11,32,17.40
2014,07,03,11,33,17.40
2014,07,03,11,34,17.30
2014,07,03,11,35,17.30
2014,07,03,11,36,17.40
2014,07,03,11,37,17.50
2014,07,03,11,38,17.60
2014,07,03,11,39,17.70
2014,07,03,11,40,17.70
2014,07,03,11,41,17.80
2014,07,03,11,42,17.80
2014,07,03,11,43,17.80
2014,07,03,11,44,17.80
2014,07,03,11,45,17.90
2014,07,03,11,46,17.80
2014,07,03,11,47,17.70
2014,07,03,11,48,17.70
2014,07,03,11,49,17.60
2014,07,03,11,50,17.50
2014,07,03,11,51,17.50
2014,07,03,11,52,17.50
2014,07,03,11,53,17.50
2014,07,03,11,54,17.40
2014,07,03,11,55,17.50
2014,07,03,11,56,17.60
2014,07,03,11,57,17.70
2014,07,03,11,58,17.70
2014,07,03,11,59,17.90
2014,07,03,12,00,18.10
2014,07,03,12,01,18.20
2014,07,03,12,02,18.20
2014,07,03,12,03,18.20
2014,07,03,12,04,18.10
2014,07,03,12,05,18.00
2014,07,03,12,06,18.00
2014,07,03,12,07,18.10
2014,07,03,12,08,18.10
2014,07,03,12,09,18.10
2014,07,03,12,10,18.20
2014,07,03,12,11,18.20
2014,07,03,12,12,18.20
2014,07,03,12,13,18.30
2014,07,03,12,14,18.40
2014,07,03,12,15,18.50
2014,07,03,12,16,18.50
2014,07,03,12,17,18.60
2014,07,03,12,18,18.70
2014,07,03,12,19,18.70
2014,07,03,12,20,18.60
2014,07,03,12,21,18.50
2014,07,03,12,22,18.40
2014,07,03,12,23,18.40
2014,07,03,12,24,18.40
2014,07,03,12,25,18.30
2014,07,03,12,26,18.30
2014,07,03,12,27,18.40
2014,07,03,12,28,18.40
2014,07,03,12,29,18.30
2014,07,03,12,30,18.40
2014,07,03,12,31,18.40
2014,07,03,12,32,18.40
2014,07,03,12,33,18.30
2014,07,03,12,34,18.20
2014,07,03,12,35,18.30
2014,07,03,12,36,18.50
2014,07,03,12,37,18.50
2014,07,03,12,38,18.50
2014,07,03,12,39,18.50
2014,07,03,12,40,18.50
2014,07,03,12,41,18.50
2014,07,03,12,42,18.50
2014,07,03,12,43,18.60
2014,07,03,12,44,18.70
2014,07,03,12,45,18.70
2014,07,03,12,46,18.80
2014,07,03,12,47,18.90
2014,07,03,12,48,18.90
2014,07,03,12,49,19.00
2014,07,03,12,50,19.10
2014,07,03,12,51,19.20
2014,07,03,12,52,19.20
2014,07,03,12,53,19.20
2014,07,03,12,54,19.20
2014,07,03,12,55,19.20
2014,07,03,12,56,19.20
2014,07,03,12,57,19.30
2014,07,03,12,58,19.40
2014,07,03,12,59,19.40
2014,07,03,13,00,19.50
2014,07,03,13,01,19.60
2014,07,03,13,02,19.40
2014,07,03,13,03,19.30
2014,07,03,13,04,19.30
2014,07,03,13,05,19.40
2014,07,03,13,06,19.40
2014,07,03,13,07,19.20
2014,07,03,13,08,19.10
2014,07,03,13,09,19.20
2014,07,03,13,10,19.20
2014,07,03,13,11,19.20
2014,07,03,13,12,19.10
2014,07,03,13,13,19.00
2014,07,03,13,14,18.80
2014,07,03,13,15,18.80
2014,07,03,13,16,18.80
2014,07,03,13,17,18.90
2014,07,03,13,18,18.90
2014,07,03,13,19,18.90
2014,07,03,13,20,18.90
2014,07,03,13,21,18.90
2014,07,03,13,22,18.90
2014,07,03,13,23,18.80
2014,07,03,13,24,18.80
2014,07,03,13,25,18.80
2014,07,03,13,26,18.90
2014,07,03,13,27,18.90
2014,07,03,13,28,18.90
2014,07,03,13,29,19.00
2014,07,03,13,30,19.10
2014,07,03,13,31,19.10
2014,07,03,13,32,19.10
2014,07,03,13,33,19.10
2014,07,03,13,34,19.10
2014,07,03,13,35,19.10
2014,07,03,13,36,19.10
2014,07,03,13,37,19.10
2014,07,03,13,38,19.20
2014,07,03,13,39,19.10
2014,07,03,13,40,19.00
2014,07,03,13,41,19.00
2014,07,03,13,42,19.10
2014,07,03,13,43,19.30
2014,07,03,13,44,19.40
2014,07,03,13,45,19.40
2014,07,03,13,46,19.40
2014,07,03,13,47,19.50
2014,07,03,13,48,19.60
2014,07,03,13,49,19.70
2014,07,03,13,50,19.80
2014,07,03,13,51,19.90
2014,07,03,13,52,19.90
2014,07,03,13,53,19.90
2014,07,03,13,54,19.90
2014,07,03,13,55,19.80
2014,07,03,13,56,19.70
2014,07,03,13,57,19.70
2014,07,03,13,58,19.80
2014,07,03,13,59,19.90
2014,07,03,14,00,19.90
2014,07,03,14,01,19.90
2014,07,03,14,02,19.90
2014,07,03,14,03,19.80
2014,07,03,14,04,19.90
2014,07,03,14,05,20.00
2014,07,03,14,06,20.00
2014,07,03,14,07,19.90
2014,07,03,14,08,19.70
2014,07,03,14,09,19.40
2014,07,03,14,10,19.30
2014,07,03,14,11,19.10
2014,07,03,14,12,19.10
2014,07,03,14,13,19.00
2014,07,03,14,14,18.90
2014,07,03,14,15,18.90
2014,07,03,14,16,18.90
2014,07,03,14,17,18.90
2014,07,03,14,18,18.90
2014,07,03,14,19,18.80
2014,07,03,14,20,18.70
2014,07,03,14,21,18.70
2014,07,03,14,22,18.60
2014,07,03,14,23,18.60
2014,07,03,14,24,18.50
2014,07,03,14,25,18.50
2014,07,03,14,26,18.60
2014,07,03,14,27,18.60
2014,07,03,14,28,18.70
2014,07,03,14,29,18.70
2014,07,03,14,30,18.70
2014,07,03,14,31,18.70
2014,07,03,14,32,18.60
2014,07,03,14,33,18.50
2014,07,03,14,34,18.50
2014,07,03,14,35,18.40
2014,07,03,14,36,18.40
2014,07,03,14,37,18.30
2014,07,03,14,38,18.30
2014,07,03,14,39,18.30
2014,07,03,14,40,18.30
2014,07,03,14,41,18.30
2014,07,03,14,42,18.30
2014,07,03,14,43,18.30
2014,07,03,14,44,18.30
2014,07,03,14,45,18.30
2014,07,03,14,46,18.30
2014,07,03,14,47,18.30
2014,07,03,14,48,18.30
2014,07,03,14,49,18.30
2014,07,03,14,50,18.30
2014,07,03,14,51,18.30
2014,07,03,14,52,18.30
2014,07,03,14,53,18.20
2014,07,03,14,54,18.30
2014,07,03,14,55,18.30
2014,07,03,14,56,18.30
2014,07,03,14,57,18.40
2014,07,03,14,58,18.40
2014,07,03,14,59,18.40
2014,07,03,15,00,18.30
2014,07,03,15,01,18.20
2014,07,03,15,02,18.20
2014,07,03,15,03,18.20
2014,07,03,15,04,18.20
2014,07,03,15,05,18.30
2014,07,03,15,06,18.30
2014,07,03,15,07,18.40
2014,07,03,15,08,18.40
2014,07,03,15,09,18.50
2014,07,03,15,10,18.50
2014,07,03,15,11,18.60
2014,07,03,15,12,18.60
2014,07,03,15,13,18.70
2014,07,03,15,14,18.70
2014,07,03,15,15,18.70
2014,07,03,15,16,18.70
2014,07,03,15,17,18.70
2014,07,03,15,18,18.70
2014,07,03,15,19,18.80
2014,07,03,15,20,18.80
2014,07,03,15,21,18.80
2014,07,03,15,22,18.80
2014,07,03,15,23,18.80
2014,07,03,15,24,18.80
2014,07,03,15,25,18.80
2014,07,03,15,26,18.80
2014,07,03,15,27,18.90
2014,07,03,15,28,18.90
2014,07,03,15,29,18.90
2014,07,03,15,30,18.90
2014,07,03,15,31,18.90
2014,07,03,15,32,18.90
2014,07,03,15,33,18.90
2014,07,03,15,34,18.90
2014,07,03,15,35,18.90
2014,07,03,15,36,18.90
2014,07,03,15,37,18.80
2014,07,03,15,38,18.80
2014,07,03,15,39,18.80
2014,07,03,15,40,18.80
2014,07,03,15,41,18.80
2014,07,03,15,42,18.80
2014,07,03,15,43,18.80
2014,07,03,15,44,18.80
2014,07,03,15,45,18.80
2014,07,03,15,46,18.80
2014,07,03,15,47,18.80
2014,07,03,15,48,18.90
2014,07,03,15,49,18.90
2014,07,03,15,50,18.90
2014,07,03,15,51,19.00
2014,07,03,15,52,19.10
2014,07,03,15,53,19.30
2014,07,03,15,54,19.30
2014,07,03,15,55,19.40
2014,07,03,15,56,19.40
2014,07,03,15,57,19.40
2014,07,03,15,58,19.50
2014,07,03,15,59,19.60
2014,07,03,16,00,19.60
2014,07,03,16,01,19.60
2014,07,03,16,02,19.60
2014,07,03,16,03,19.60
2014,07,03,16,04,19.60
2014,07,03,16,05,19.70
2014,07,03,16,06,19.80
2014,07,03,16,07,19.90
2014,07,03,16,08,19.90
2014,07,03,16,09,19.90
2014,07,03,16,10,19.80
2014,07,03,16,11,19.60
2014,07,03,16,12,19.50
2014,07,03,16,13,19.40
2014,07,03,16,14,19.30
2014,07,03,16,15,19.20
2014,07,03,16,16,19.10
2014,07,03,16,17,19.00
2014,07,03,16,18,18.90
2014,07,03,16,19,18.90
2014,07,03,16,20,18.90
2014,07,03,16,21,18.80
2014,07,03,16,22,18.80
2014,07,03,16,23,18.80
2014,07,03,16,24,18.70
2014,07,03,16,25,18.60
2014,07,03,16,26,18.60
2014,07,03,16,27,18.60
2014,07,03,16,28,18.60
2014,07,03,16,29,18.50
2014,07,03,16,30,18.60
2014,07,03,16,31,18.60
2014,07,03,16,32,18.60
2014,07,03,16,33,18.60
2014,07,03,16,34,18.50
2014,07,03,16,35,18.50
2014,07,03,16,36,18.50
2014,07,03,16,37,18.50
2014,07,03,16,38,18.60
2014,07,03,16,39,18.60
2014,07,03,16,40,18.70
2014,07,03,16,41,18.70
2014,07,03,16,42,18.70
2014,07,03,16,43,18.80
2014,07,03,16,44,18.90
2014,07,03,16,45,18.90
2014,07,03,16,46,18.90
2014,07,03,16,47,18.90
2014,07,03,16,48,18.90
2014,07,03,16,49,18.90
2014,07,03,16,50,18.90
2014,07,03,16,51,18.90
2014,07,03,16,52,18.90
2014,07,03,16,53,18.90
2014,07,03,16,54,18.90
2014,07,03,16,55,18.80
2014,07,03,16,56,18.80
2014,07,03,16,57,18.80
2014,07,03,16,58,18.80
2014,07,03,16,59,18.70
2014,07,03,17,00,18.70
2014,07,03,17,01,18.70
2014,07,03,17,02,18.70
2014,07,03,17,03,18.70
2014,07,03,17,04,18.70
2014,07,03,17,05,18.80
2014,07,03,17,06,18.80
2014,07,03,17,07,18.80
2014,07,03,17,08,18.80
2014,07,03,17,09,18.80
2014,07,03,17,10,18.80
2014,07,03,17,11,18.80
2014,07,03,17,12,18.80
2014,07,03,17,13,18.80
2014,07,03,17,14,18.80
2014,07,03,17,15,18.70
2014,07,03,17,16,18.70
2014,07,03,17,17,18.70
2014,07,03,17,18,18.70
2014,07,03,17,19,18.60